Regional Weather Roundup
Issued by NWS Huntsville, AL

Home | Current Version | Previous Version | Text Only | Print | Product List | Glossary On
Versions: 1 2 3 4 5 6 7 8 9 10 11 12 13 14 15 16 17 18 19 20 21 22 23 24 25 26 27
000
ASUS44 KHUN 290210
RWRHUN

WEATHER ROUNDUP FOR THE TENNESSEE VALLEY
NATIONAL WEATHER SERVICE HUNTSVILLE AL
900 PM CDT FRI APR 28 2017

ALZ001>004-290300-
NORTHWEST ALABAMA

CITY           SKY/WX    TMP DP  RH WIND       PRES   REMARKS
COURTLAND HCN    N/A     79 N/A N/A S5          N/A
RUSSELLVILLE     N/A     77 N/A N/A MISG        N/A
SHOALS AIRPORT PTCLDY    80  65  59 S10       29.93R
SHOALS TVA RES   N/A     79 N/A N/A MISG        N/A
$$

ALZ005>007-016-290300-
NORTH CENTRAL ALABAMA

CITY           SKY/WX    TMP DP  RH WIND       PRES   REMARKS
CULLMAN AG STN   N/A     77 N/A N/A S5          N/A
DECATUR AP     CLEAR     75  68  78 S9        29.96R
HUNTSVILLE AP  CLEAR     79  68  69 S10       29.96R
MERIDIANVILLE  CLEAR     79  64  61 CALM      29.97R
REDSTONE ARSN  CLEAR     77  68  74 S7        29.96R
VINEMONT AP    FAIR      77  65  66 S12       30.00R
$$

ALZ008>010-290300-
NORTHEAST ALABAMA

CITY           SKY/WX    TMP DP  RH WIND       PRES   REMARKS
ALBERTVILLE    PTCLDY    75  72  88 S7        30.00R
FORT PAYNE     CLEAR     77  63  61 S6        30.01R
SCOTTSBORO AP  CLEAR     79  66  65 S5        30.00R
SCOTTSBORO HCN   N/A     77 N/A N/A MISG        N/A
VALLEY HEAD      N/A     75 N/A N/A MISG        N/A
$$

TNZ076-096-097-290300-
SOUTHEASTERN MIDDLE TENNESSEE

CITY           SKY/WX    TMP DP  RH WIND       PRES   REMARKS
TULLAHOMA      CLEAR     75  64  69 S8        29.99R
WINCHESTER     PTCLDY    77  64  65 SE7       30.00R
$$

...SURROUNDING SITES...

CITY           SKY/WX    TMP DP  RH WIND       PRES   REMARKS
ATLANTA        MOCLDY    77  67  71 SE6       30.08R
ANNISTON       PTCLDY    79  68  69 S7        30.02R
BIRMINGHAM     PTCLDY    81  66  60 S9        30.01R
CHATTANOOGA    MOCLDY    79  65  62 S7        30.02R
CORINTH        FAIR      79  68  69 S8        29.88R
DALTON         PTCLDY    75  66  73 SE7       30.04R
GADSDEN        PTCLDY   N/A N/A N/A SE8       30.01R
GOLDEN TRNGL   PTCLDY    79  66  65 S12       29.88R
HALEYVILLE     FAIR      77  66  68 S9        29.98R
JACKSON TN     PTCLDY    79  71  76 S9        29.85R
MEMPHIS        MOCLDY    80  71  74 S9        29.82R
NASHVILLE      PTCLDY    76  67  73 S9        29.91R
OXFORD MS      FAIR      75  66  73 SE8       29.88R
ROME           PTCLDY    77  66  68 S7        30.02R
SAVANNAH       MOCLDY    79  70  73 S10       29.88R
TUPELO         PTCLDY    80  66  62 SE10      29.88R
TUSCALOOSA     CLEAR     80  69  69 S9        29.96R
$$

...GULF COAST WEATHER...

CITY           SKY/WX    TMP DP  RH WIND       PRES   REMARKS
GULFPORT       CLOUDY    78  76  93 SE15      29.95R FOG
PASCAGOULA     CLOUDY    77  73  87 SE15G23   29.97R
MOBILE         CLOUDY    77  73  87 SE17      29.99R
GULF SHORES    CLOUDY    75  75 100 SE12G20   30.00R
PENSACOLA      CLOUDY    77  72  84 SE16      30.00R
DESTIN         CLOUDY    78  77  96 SE13      30.04R
PANAMA CITY    MOCLDY    75  72  91 SE7       30.05R
APPALACHICOLA  CLOUDY    76  75  97 E3        30.04S
$$





USA.gov is the U.S. government's official web portal to all federal, state and local government web resources and services.